カタログに戻る

COSMOS 2251 DEB

運用中LEO
NORAD 33975·DEBRIS·🇷🇺 Russia

打ち上げ Jun 16, 1993 から Plesetsk Cosmodrome

Loading…

次のパス (今後24時間)

TLE

最新Source: Space-Track

元期: Sep 13, 2026, 21:44 UTC

1 33975U 93036FJ  26256.90613903  .00000235  00000-0  14857-3 0  9998
2 33975  73.8020 320.5948 0189546  45.4975 316.1472 14.00863741896828

AllMySatでCOSMOS 2251 DEBをリアルタイム追跡

Download on the App Store